Pagina principale
METAR-TAF:

METAR-TAF

Aeroporti :

Rasht, Iran

latitudine: 37-12N, longitudine: 049-38E, altezza: -7 m

Osservazione

Il bollettino è stato emesso 5 ore e 28 minuti fa, alle 16:30 UTC
Vento calmo
Temperature 17°C
Umidità 94%
Pressione 1019 hPa
Visibilità: 6000 m

METAR: OIGG 291630Z 00000KT 6000 NSC 17/16 Q1019

Ora: 01:28 (21:58 UTC)


TAF: mancante

Osservazioni e previsioni meteorologiche di più di 4000 aeroporti (messaggi METAR e TAF).

Le stazioni disponibili sono rappresentate dai dischi gialli e rossi sulla carta.

Puntare il mouse per vedere il nome della stazione.

Clicca sopra per visualizzare le osservazioni e previsioni meteorologiche.

Per cambiare la mappa : fare clic sui pulsanti verdi con una croce nera per ingrandire, il pulsante verde con un trattino per diminuire, o sulla freccia verde per le mappe adiacenti.


METAR-TAF: